Weather History for KGEV - January, 2001

Change the Weather History Date:

Thursday, January 18, 2001

  Actual Average Record
Temperature  
Mean Temperature 34 °F -  
Max Temperature 37 °F 41 °F 61 °F (1990)
Min Temperature 32 °F 22 °F 0 °F (1977)
Degree Days  
Heating Degree Days 30    
Moisture  
Dew Point 33 °F    
Average Humidity 95    
Maximum Humidity 100    
Minimum Humidity 93    
Precipitation  
Precipitation 0.12 in - - ()
Sea Level Pressure  
Sea Level Pressure 30.04 in    
Wind  
Wind Speed 3 mph (SSE)    
Max Wind Speed 9 mph    
Max Gust Speed -    
Visibility 1 miles    
Events Fog , Rain , Snow    
Averages and records for this station are not official NWS values.
T = Trace of Precipitation, MM = Missing Value Source: NWS Daily Summary

Daily Weather History Graph

Daily Weather History Graph

Search for Another Location

Airport or City:

Trip Planner

Search our weather history database for the weather conditions in past years. The results will help you decide how hot, cold, wet, or windy it might be!

Date:

Astronomy

Jan. 18, 2001 Rise Set
Actual Time 7:35 AM EST 5:37 PM EST
Civil Twilight 7:07 AM EST 6:05 PM EST
Nautical Twilight 6:36 AM EST 6:36 PM EST
Astronomical Twilight 6:05 AM EST 7:07 PM EST
Moon 2:28 AM EST (1/18) 1:21 PM EST (1/18)
Length of Visible Light 10h 57m
Length of Day
10h 01m
Waning Crescent, 28% of the Moon is Illuminated
Jan 18
Waning Crescent
Jan 24
New
Feb 1
First Quarter
Feb 8
Full
Feb 14
Last Quarter

Hourly Weather History & Observations

Time (EST) Temp. Windchill Dew Point Humidity Pressure Visibility Wind Dir Wind Speed Gust Speed Precip Events Conditions
12:17 AM 33.8 °F - 32.0 °F 93% 30.08 in 4.0 mi Calm Calm - 0.01 in Rain Light Rain
12:37 AM 32.0 °F - 32.0 °F 100% 30.05 in 2.5 mi Calm Calm - 0.01 in Rain Light Rain
12:57 AM 32.0 °F 28.7 °F 32.0 °F 100% 30.04 in 2.5 mi SSE 3.5 mph - N/A   Overcast
1:17 AM 33.8 °F 29.6 °F 32.0 °F 93% 30.04 in 2.0 mi South 4.6 mph - N/A   Overcast
1:37 AM 33.8 °F 26.4 °F 32.0 °F 93% 30.03 in 2.5 mi SSE 9.2 mph - N/A   Overcast
1:57 AM 33.8 °F 27.7 °F 32.0 °F 93% 30.06 in 3.0 mi SSW 6.9 mph - N/A   Overcast
2:17 AM 35.6 °F 32.8 °F 33.8 °F 93% 30.07 in 5.0 mi NE 3.5 mph - N/A   Overcast
2:37 AM 33.8 °F 29.6 °F 32.0 °F 93% 30.07 in 1.8 mi SE 4.6 mph - N/A   Overcast
2:57 AM 32.0 °F - 32.0 °F 100% 30.07 in 1.5 mi Calm Calm - N/A   Overcast
3:17 AM 32.0 °F 28.7 °F 32.0 °F 100% 30.06 in 1.5 mi SE 3.5 mph - N/A   Overcast
3:37 AM 33.8 °F - 32.0 °F 93% 30.06 in 1.8 mi Calm Calm - N/A   Overcast
3:57 AM 33.8 °F 30.8 °F 32.0 °F 93% 30.05 in 1.2 mi SSE 3.5 mph - N/A   Overcast
4:17 AM 32.0 °F 28.7 °F 32.0 °F 100% 30.05 in 0.2 mi SSE 3.5 mph - N/A Fog Fog
4:37 AM 33.8 °F 29.6 °F 32.0 °F 93% 30.04 in 0.2 mi SSE 4.6 mph - N/A Fog Fog
4:57 AM 33.8 °F 28.6 °F 32.0 °F 93% 30.04 in 0.2 mi SSE 5.8 mph - N/A Fog Fog
5:17 AM 33.8 °F 29.6 °F 32.0 °F 93% 30.04 in 0.2 mi SSE 4.6 mph - N/A Fog Fog
5:37 AM 32.0 °F 26.4 °F 32.0 °F 100% 30.04 in 0.2 mi SSE 5.8 mph - N/A Fog Fog
5:57 AM 32.0 °F 27.5 °F 32.0 °F 100% 30.04 in 0.2 mi SSE 4.6 mph - N/A Fog Fog
6:17 AM 32.0 °F 26.4 °F 32.0 °F 100% 30.04 in 0.2 mi SSE 5.8 mph - N/A Fog Fog
6:37 AM 32.0 °F 26.4 °F 32.0 °F 100% 30.06 in 0.2 mi SSE 5.8 mph - 0.00 in Snow Light Snow
6:57 AM 32.0 °F 25.6 °F 32.0 °F 100% 30.05 in 0.2 mi SSE 6.9 mph - 0.00 in Rain Light Rain
7:17 AM 32.0 °F 28.7 °F 32.0 °F 100% 30.06 in 0.2 mi SE 3.5 mph - 0.00 in Rain Light Rain
7:37 AM 32.0 °F 27.5 °F 32.0 °F 100% 30.06 in 0.2 mi SE 4.6 mph - 0.01 in Rain Light Rain
7:57 AM 32.0 °F 27.5 °F 32.0 °F 100% 30.07 in 0.2 mi SSE 4.6 mph - 0.00 in Rain Light Rain
8:17 AM 33.8 °F 30.8 °F 32.0 °F 93% 30.07 in 0.2 mi SSE 3.5 mph - N/A Fog Fog
8:37 AM 33.8 °F 28.6 °F 32.0 °F 93% 30.07 in 0.2 mi SSE 5.8 mph - 0.00 in Rain Light Rain
8:57 AM 33.8 °F 28.6 °F 32.0 °F 93% 30.07 in 0.2 mi SSE 5.8 mph - N/A Fog Fog
9:17 AM 33.8 °F 28.6 °F 32.0 °F 93% 30.07 in 0.2 mi SSE 5.8 mph - N/A Fog Fog
9:37 AM 33.8 °F 27.0 °F 32.0 °F 93% 30.07 in 0.2 mi SSE 8.1 mph - N/A Fog Fog
9:57 AM 33.8 °F 30.8 °F 32.0 °F 93% 30.07 in 0.2 mi SE 3.5 mph - N/A Fog Fog
10:17 AM 33.8 °F 29.6 °F 32.0 °F 93% 30.08 in 0.2 mi SE 4.6 mph - 0.00 in Rain Light Rain
10:37 AM 32.0 °F 28.7 °F 32.0 °F 100% 30.09 in 0.2 mi SSE 3.5 mph - N/A Fog Fog
10:57 AM 32.0 °F 28.7 °F 32.0 °F 100% 30.08 in 0.2 mi SE 3.5 mph - 0.00 in Rain Light Rain
11:17 AM 33.8 °F - 32.0 °F 93% 30.08 in 0.2 mi Calm Calm - 0.00 in Rain Light Rain
11:37 AM 33.8 °F 30.8 °F 32.0 °F 93% 30.07 in 0.2 mi SE 3.5 mph - 0.01 in Rain Light Rain
11:57 AM 35.6 °F 32.8 °F 33.8 °F 93% 30.07 in 0.2 mi SSE 3.5 mph - 0.00 in Rain Light Rain
12:17 PM 35.6 °F - 33.8 °F 93% 30.06 in 0.2 mi Calm Calm - 0.00 in Rain Light Rain
12:37 PM 35.6 °F - 33.8 °F 93% 30.06 in 0.2 mi Calm Calm - 0.01 in Rain Light Rain
12:57 PM 35.6 °F - 33.8 °F 93% 30.04 in 0.2 mi Calm Calm - 0.00 in Rain Light Rain
1:17 PM 35.6 °F - 33.8 °F 93% 30.03 in 0.2 mi Calm Calm - 0.01 in Rain Light Rain
1:37 PM 35.6 °F - 33.8 °F 93% 30.02 in 0.5 mi Calm Calm - 0.02 in Rain Rain
1:57 PM 37.4 °F - 35.6 °F 93% 30.02 in 0.8 mi Calm Calm - 0.00 in Rain Light Rain
2:17 PM 37.4 °F - 35.6 °F 93% 30.01 in 1.8 mi Calm Calm - 0.03 in Rain Rain
2:37 PM 37.4 °F - 35.6 °F 93% 30.01 in 0.5 mi Calm Calm - 0.05 in Rain Rain
2:57 PM 37.4 °F - 35.6 °F 93% 30.00 in 1.8 mi Calm Calm - 0.00 in Rain Light Rain
3:17 PM 37.4 °F - 35.6 °F 93% 29.99 in 3.0 mi Calm Calm - 0.00 in Rain Rain
3:37 PM 37.4 °F - 35.6 °F 93% 29.99 in 2.5 mi Calm Calm - 0.01 in Rain Light Rain
3:57 PM 37.4 °F - 35.6 °F 93% 30.00 in 1.2 mi Calm Calm - 0.00 in Rain Light Rain
4:17 PM 37.4 °F - 35.6 °F 93% 30.00 in 0.2 mi Calm Calm - 0.01 in Rain Light Rain
4:37 PM 37.4 °F - 35.6 °F 93% 30.00 in 1.0 mi Calm Calm - 0.01 in Rain Rain
4:57 PM 37.4 °F - 35.6 °F 93% 29.99 in 0.2 mi Calm Calm - 0.00 in Rain Light Rain
5:17 PM 37.4 °F - 35.6 °F 93% 29.98 in 0.2 mi Calm Calm - N/A Fog Fog
5:37 PM 37.4 °F - 35.6 °F 93% 29.98 in 0.2 mi Calm Calm - N/A Fog Fog
5:57 PM 37.4 °F - 35.6 °F 93% 29.97 in 0.2 mi Calm Calm - N/A Fog Fog
6:17 PM 35.6 °F - 35.6 °F 100% 29.97 in 0.5 mi Calm Calm - N/A Fog Fog
6:37 PM 35.6 °F - 33.8 °F 93% 29.97 in 0.5 mi Calm Calm - N/A Fog Fog
6:57 PM 35.6 °F - 33.8 °F 93% 29.97 in 0.2 mi Calm Calm - N/A Fog Fog
7:17 PM 37.4 °F - 35.6 °F 93% 29.97 in 0.2 mi Calm Calm - N/A Fog Fog
7:37 PM 35.6 °F - 33.8 °F 93% 29.97 in 0.2 mi Calm Calm - N/A Fog Fog
7:57 PM 35.6 °F - 35.6 °F 100% 29.97 in 0.2 mi Calm Calm - N/A Fog Fog
8:17 PM 37.4 °F 34.9 °F 35.6 °F 93% 29.97 in 0.2 mi SSE 3.5 mph - N/A Fog Fog
8:37 PM 37.4 °F 33.8 °F 35.6 °F 93% 29.96 in 0.2 mi SSE 4.6 mph - N/A Fog Fog
8:57 PM 37.4 °F 34.9 °F 35.6 °F 93% 29.96 in 0.2 mi SSE 3.5 mph - N/A Fog Fog
9:17 PM 37.4 °F - 35.6 °F 93% 29.95 in 0.2 mi Calm Calm - N/A Fog Fog
9:37 PM 37.4 °F - 35.6 °F 93% 29.95 in 0.2 mi Calm Calm - N/A Fog Fog
9:57 PM 37.4 °F - 35.6 °F 93% 29.95 in 0.2 mi Calm Calm - 0.00 in Rain Light Rain
10:17 PM 37.4 °F - 37.4 °F 100% 29.94 in 0.2 mi Calm Calm - 0.00 in Rain Light Rain
10:37 PM 37.4 °F - 37.4 °F 100% 29.94 in 0.2 mi Calm Calm - 0.01 in Rain Light Rain
10:57 PM 37.4 °F - 35.6 °F 93% 29.93 in 0.2 mi Calm Calm - 0.00 in Rain Light Rain
11:17 PM 37.4 °F 34.9 °F 35.6 °F 93% 29.92 in 0.2 mi SSE 3.5 mph - 0.03 in Rain Rain
11:37 PM 37.4 °F 34.9 °F 35.6 °F 93% 29.91 in 0.2 mi SSE 3.5 mph - 0.06 in Rain Light Rain
11:57 PM 37.4 °F 34.9 °F 35.6 °F 93% 29.92 in 0.5 mi SE 3.5 mph - 0.00 in Rain Rain